Regional Weather Roundup
Issued by NWS Charleston, SC

Current Version | Previous Version | Graphics & Text | Print | Product List | Glossary On
Versions: 1 2 3 4 5 6 7 8 9 10 11 12 13 14 15 16 17 18 19 20 21 22 23 24 25 26 27 28 29 30 31 32 33 34 35 36 37 38 39 40 41 42 43 44 45 46 47 48 49 50
864
ASUS42 KCHS 280627
RWRCHS

REGIONAL WEATHER ROUNDUP
NATIONAL WEATHER SERVICE CHARLESTON SC
200 AM EDT WED JUN 28 2017

NOTE: "FAIR" INDICATES FEW OR NO CLOUDS BELOW 12,000 FEET WITH NO
SIGNIFICANT WEATHER AND/OR OBSTRUCTIONS TO VISIBILITY.

NOT ALL STATIONS ARE QUALITY CONTROLLED. USE DATA WITH CAUTION...
ESPECIALLY DEWPOINT OBSERVATIONS.

SCZ027-030-031-034>040-042>050-280700-
...SOUTHEAST SOUTH CAROLINA...

CITY           SKY/WX    TMP DP  RH WIND       PRES   REMARKS
N CHARLESTON   MOCLDY    72  66  81 CALM      30.07R
6HR MIN TEMP:  71; 6HR MAX TEMP:  80;

WATERFRONT PRK   N/A     78  71  79 VRB2      30.04S
JOHNS ISLAND     N/A     72  70  94 CALM      30.07S
PINOPOLIS        N/A     73  68  83 CALM      29.99F
MONCKS CORNER  FAIR      66  66 100 CALM      30.08R
SUMMERVILLE    FAIR      70  68  94 CALM      30.08S
BEAUFORT MCAS  CLOUDY    73  72  96 N5        30.07R
6HR MIN TEMP:  73; 6HR MAX TEMP:  80;

BEAUFORT ARPT  FAIR      75  70  83 CALM      30.06S
HILTON HEAD IS MOCLDY    75  73  94 CALM      30.07R
WALTERBORO     CLOUDY    68  66  94 CALM      30.08S
ALLENDALE      FAIR      70  70 100 CALM      30.07S

...SOUTHERN MIDLANDS AND PEE DEE...

CITY           SKY/WX    TMP DP  RH WIND       PRES   REMARKS
GEORGETOWN     FAIR      68  66  94 CALM      30.08S
KINGSTREE      FAIR      68  63  83 CALM      30.09R
ORANGEBURG     CLEAR     69  67  93 CALM      30.08S
6HR MIN TEMP:  69; 6HR MAX TEMP:  79;

BARNWELL       FAIR      70  70 100 CALM      30.08S
AIKEN          FAIR      68  63  83 CALM      30.13R
MANNING        FAIR      68  68 100 CALM      30.09R
COLUMBIA       PTCLDY    75  57  53 E7        30.09R
6HR MIN TEMP:  74; 6HR MAX TEMP:  85;

SUMTER         CLEAR     69  58  66 CALM      30.07S
6HR MIN TEMP:  67; 6HR MAX TEMP:  81;

FLORENCE       CLEAR     69  59  70 NE5       30.09S
6HR MIN TEMP:  68; 6HR MAX TEMP:  83;

MYRTLE BEACH   NOT AVBL
N MYRTLE BEACH CLEAR     71  67  87 N5        30.07S
6HR MIN TEMP:  71; 6HR MAX TEMP:  78;


$$

GAZ063-065-086>088-099>101-113>116-118-119-134>141-150-280700-
...SOUTHEAST GEORGIA...

CITY           SKY/WX    TMP DP  RH WIND       PRES   REMARKS
SAVANNAH ARPT  MOCLDY    72  69  90 N5        30.07R
6HR MIN TEMP:  72; 6HR MAX TEMP:  79;

HUNTER AAF     CLOUDY    73  69  87 CALM      30.04R
6HR MIN TEMP:  72; 6HR MAX TEMP:  78;

FORT STEWART   CLOUDY    71  68  92 CALM      30.04S
6HR MIN TEMP:  71; 6HR MAX TEMP:  76;

STATESBORO     MOCLDY    72  32  23 CALM      30.07S
SYLVANIA       CLOUDY    71  71 100 CALM      30.09R
CLAXTON        FAIR      69  69  99 CALM      30.07S

...CSRA...CENTRAL AND FAR SOUTHEAST GEORGIA...

CITY           SKY/WX    TMP DP  RH WIND       PRES   REMARKS
THOMSON        CLEAR     65  63  91 CALM      30.14R
AUGUSTA-BUSH   CLEAR     69  66  90 CALM      30.07S
6HR MIN TEMP:  68; 6HR MAX TEMP:  85;

AUGUSTA-DANIEL CLEAR     74  62  66 E5        30.09R
SWAINSBORO     FAIR      70  70 100 CALM      30.08S
VIDALIA        CLOUDY    72  70  94 CALM      30.07S
EASTMAN        FOG       70  70 100 CALM      30.10S VSB 1
HAZLEHURST     FAIR      72  72 100 CALM      30.06S
ALMA           MOCLDY    69  68  96 CALM      30.06S FOG
6HR MIN TEMP:  69; 6HR MAX TEMP:  76;

WAYCROSS       PTCLDY    72  72 100 CALM      30.05S FOG
JESUP          FAIR      70  66  88 CALM      30.06S
BAXLEY         FAIR      70  70 100 CALM      30.06S
BRUNSWICK      PTCLDY    70  70 100 CALM      30.06S
SAINT SIMONS   PTCLDY    74  72  93 N6        30.04R
6HR MIN TEMP:  74; 6HR MAX TEMP:  79; 6HR PCP: TRACE;


$$

SCZ027-028-034-036>038-045-046-048>050-GAZ119-141-280700-
...LAKE AND SUPPLEMENTAL COASTAL OBSERVATIONS...

STATION/POSITION TIME  TEMP    WIND        PRES    WAVE   SWELL
                       AIR SEA DIR/SP/G            HT/PER HT/PER/DIR
                 (UTC) (F)     (DEG/KT/KT) (MB)    (FT/S) (FT/S/D)
WINYAH BAY       0545   72     320/  4     1018.0S
LAKE MURRAY      0550   72      CALM  /  5 1018.3R
ACE BASIN NERRS  0530   73        CALM     1018.0S
FORT PULASKI     0600   77 83   10/  6/  7 1018.1
SAPELO ISLAND    0600   75      10/  4     1017.0

$$

ANZ835-935-AMZ111-154-330-350-352-354-370-450-454-472-280700-
...C-MAN AND BUOY OBSERVATIONS...

STATION/POSITION TIME  TEMP    WIND        PRES    WAVE   SWELL
                       AIR SEA DIR/SP/G            HT/PER HT/PER/DIR
                 (UTC) (F)     (DEG/KT/KT) (MB)    (FT/S) (FT/S/D)
BUOY 41004       0610   80 81   20/  6/  8 1017.5
BUOY 41008       0550   79 82   40/  2/  4 1017.0R   1/ 7   2/130/ 7
FOLLY BEACH CMAN 0600   78     340/  3/  5 1018.6R
CAPERS NEARSHORE 0608   85 83   10/  4/  6 1017.9R
FRIPP NEARSHORE  0608   80 83   90/  4/  6 1017.5R


STATION/POSITION TIME  TEMP    WIND        PRES    WAVE   SWELL
                       AIR SEA DIR/SP/G            HT/PER HT/PER/DIR
                 (UTC) (F)     (DEG/KT/KT) (MB)    (FT/S) (FT/S/D)
5E ST. MARYS GA  0600      80                N/A     2/ 8
FRYING PAN BUOY  0610   79 80  320/  4/  6 1017.9
BUOY 41025       0550   78 81  360/ 16/ 17 1017.5R   2/ 6   2/ 90/ 6
CAPE LOOKOUT NC  0600   76     350/ 13/ 15 1018.0R
BUOY 41002       0550   79 80  220/  6/  8 1017.2S   3/ 7   3/130/ 7
BUOY 41010       0610   82 83  180/  6/  8 1016.0
ST AUGUSTINE FL  0600   75 79  330/  4/  5 1016.8R


$$




USA.gov is the U.S. government's official web portal to all federal, state and local government web resources and services.